User: anonymous   Login
Location: Unspecified
(0.0000°N, 0.0000°E)
Time: 11:48:13
(UTC+00:00)
Language:

Alouette 1 - Orbit

View from above orbital plane
View from above orbital plane
View from above satellite
View from above satellite

Ground track
Ground track

The orbit data is extracted from the following two-line orbital elements,

1 00424U 62049A   17057.48092772  .00000053  00000-0  50739-4 0  9996
2 00424  80.4687  16.5947 0023373   3.2352 126.1059 13.69076103716329
Epoch (UTC): 26 February 2017 11:32:32
Eccentricity: 0.0023373
inclination: 80.4687°
perigee height: 985 km
apogee height: 1020 km
right ascension of ascending node: 16.5947°
argument of perigee: 3.2352°
revolutions per day: 13.69076103
mean anomaly at epoch: 126.1059°
orbit number at epoch: 71632

The dashed part of the orbit path shows where the satellite is in the earth's shadow,  

DLR